Location: Broletto
(44.6000°N, 10.5833°E)
Time: 02:36:39
(UTC+00:00)

Cosmos 1302 Rocket - Pass Details

Date: 18 April 2021
Orbit: 756 x 777 km, 74.0° (Epoch: 07 May)

Event Time Altitude Azimuth Distance (km) Brightness Sun altitude
Rises 18:26:52 0° 340° (NNW) 3,268 7.9 -4.3°
Reaches altitude 10° 18:29:16 10° 342° (NNW) 2,335 7.1 -4.7°
Maximum altitude 18:34:35 76° 68° (ENE) 802 4.0 -5.6°
Drops below altitude 10° 18:39:51 10° 155° (SSE) 2,312 6.1 -6.4°
Sets 18:42:13 0° 157° (SSE) 3,232 6.8 -6.8°
